Temp
-6 -6 -6 -6 -6 -6 -7 -7 -6 -6 -5 -5 -4 -4 -4 -4 -4 -3 -3 -3 -2 -2 -1 -1 -1 -1 -0
-6 -6 -6 -6 -7 -6 -7 -7 -7 -7 -6 -5 -5 -5 -5 -5 -4 -4 -4 -3 -3 -2 -2 -1 -1 -1 -1
-7 -6 -7 -7 -7 -7 -7 -7 -8 -7 -7 -7 -7 -6 -6 -6 -5 -5 -4 -4 -4 -4 -3 -3 -2 -2 -1
-7 -7 -7 -7 -7 -8 -8 -8 -8 -8 -8 -8 -7 -7 -7 -6 -6 -6 -6 -5 -5 -5 -4 -3 -3 -2 -2
-7 -7 -7 -8 -8 -9 -9 -9 -9 -8 -8 -8 -8 -8 -8 -8 -8 -7 -7 -6 -5 -5 -4 -3 -3 -3 -2
-7 -8 -8 -9 -9 -9 -9 -8 -8 -8 -8 -9 -9 -9 -9 -9 -8 -7 -7 -6 -6 -5 -4 -4 -4 -3 -3
-8 -9 -9 -9 -9 -8 -9 -9 -9 -9 -9 -9 -9 -9 -9 -9 -8 -8 -7 -7 -6 -6 -5 -5 -4 -3 -3
-9 -9 -8 -8 -9 -9 -9 -9 -10 -10 -10 -10 -9 -10 -9 -9 -9 -8 -8 -7 -7 -7 -6 -5 -5 -4 -3
-9 -9 -9 -10 -10 -9 -10 -10 -10 -10 -8 -10 -9 -10 -9 -8 -7 -7 -6 -7 -7 -6 -6 -5 -5 -4 -4
-10 -9 -9 -10 -10 -10 -10 -11 -10 -10 -8 -10 -9 -9 -9 -8 -7 -7 -7 -7 -7 -7 -6 -5 -5 -5 -4
-11 -11 -10 -11 -10 -10 -10 -10 -10 -10 -8 -9 -9 -9 -9 -9 -8 -8 -7 -7 -8 -7 -7 -7 -6 -5 -4
-11 -11 -11 -10 -10 -10 -9 -9 -9 -9 -9 -9 -8 -8 -9 -9 -9 -7 -7 -6 -6 -5 -5 -5 -4 -4 -4
-11 -11 -11 -10 -10 -10 -9 -9 -9 -9 -8 -8 -9 -9 -9 -10 -9 -7 -7 -5 -5 -5 -5 -4 -3 -2 -2
-11 -11 -10 -10 -10 -10 -9 -9 -9 -8 -8 -9 -9 -9 -8 -7 -8 -7 -6 -6 -4 -4 -3 -2 -1 -0 -0
-11 -10 -10 -10 -10 -9 -9 -9 -9 -8 -8 -8 -8 -7 -7 -7 -7 -6 -5 -4 -4 -3 -2 -1 -1 0 1
-10 -10 -10 -10 -10 -9 -8 -8 -8 -8 -8 -8 -8 -7 -6 -6 -7 -5 -4 -4 -4 -3 -3 -1 -1 -0 1
-10 -10 -9 -9 -9 -9 -8 -8 -8 -8 -8 -8 -8 -8 -7 -8 -6 -5 -4 -4 -3 -3 -3 -3 -2 -2 -1
Height
1358 1354 1349 1344 1340 1338 1334 1328 1322 1317 1314 1308 1304 1300 1296 1292 1288 1284 1281 1278 1274 1272 1271 1270 1268 1267 1267
1349 1345 1341 1335 1329 1324 1320 1317 1312 1307 1304 1298 1292 1287 1282 1277 1274 1269 1267 1264 1262 1259 1258 1257 1255 1253 1253
1346 1338 1332 1328 1320 1314 1309 1304 1301 1295 1290 1285 1280 1274 1269 1265 1260 1257 1253 1250 1247 1245 1243 1242 1242 1241 1241
1340 1331 1326 1319 1314 1306 1295 1293 1287 1282 1275 1271 1266 1261 1257 1253 1248 1243 1239 1236 1234 1232 1230 1229 1229 1229 1229
1334 1324 1316 1310 1304 1296 1287 1278 1274 1270 1260 1255 1252 1247 1241 1237 1232 1227 1223 1221 1219 1218 1216 1215 1215 1215 1215
1325 1318 1309 1303 1295 1287 1278 1269 1258 1263 1253 1242 1242 1232 1228 1223 1218 1215 1211 1208 1206 1204 1202 1202 1201 1201 1202
1320 1312 1302 1295 1287 1278 1272 1265 1255 1247 1243 1227 1229 1220 1214 1210 1207 1202 1198 1195 1191 1189 1188 1188 1188 1189 1190
1314 1304 1297 1289 1282 1273 1263 1254 1245 1237 1234 1219 1215 1207 1202 1197 1191 1187 1182 1180 1177 1175 1174 1175 1175 1176 1178
1305 1298 1290 1281 1274 1265 1255 1247 1235 1227 1222 1214 1203 1196 1190 1181 1176 1173 1169 1167 1165 1162 1161 1161 1162 1164 1165
1294 1286 1279 1270 1264 1258 1249 1240 1231 1218 1213 1207 1196 1191 1177 1171 1166 1163 1159 1156 1153 1151 1151 1151 1152 1153 1154
1285 1277 1270 1262 1255 1248 1242 1234 1225 1214 1206 1201 1191 1184 1179 1164 1156 1153 1149 1142 1139 1136 1136 1136 1139 1142 1144
1280 1272 1264 1255 1247 1240 1233 1226 1219 1210 1200 1195 1186 1180 1171 1162 1153 1145 1139 1133 1128 1125 1124 1124 1125 1128 1134
1277 1267 1259 1250 1242 1233 1226 1219 1210 1203 1196 1188 1181 1173 1167 1160 1152 1141 1134 1125 1122 1118 1115 1114 1115 1119 1124
1272 1263 1254 1245 1238 1230 1221 1213 1205 1196 1191 1183 1174 1167 1161 1157 1152 1141 1133 1127 1118 1113 1108 1106 1108 1114 1119
1268 1259 1251 1243 1235 1227 1220 1212 1205 1196 1186 1180 1172 1165 1161 1157 1150 1142 1134 1127 1121 1114 1110 1107 1110 1114 1120
1265 1258 1250 1242 1233 1226 1219 1212 1204 1197 1190 1182 1174 1167 1163 1159 1154 1146 1139 1133 1127 1121 1116 1113 1116 1118 1121
1263 1256 1249 1241 1233 1225 1219 1212 1205 1199 1192 1185 1178 1173 1168 1163 1158 1152 1146 1141 1137 1130 1127 1124 1125 1128 1127
Wind_Speed
50 49 48 52 49 44 39 38 41 38 37 36 38 42 43 45 45 44 43 43 42 42 41 43 43 42 42
54 52 53 51 49 52 40 36 41 44 41 42 47 48 46 42 41 41 42 42 42 42 42 44 43 40 42
47 54 50 43 50 43 44 43 44 40 40 42 39 40 41 40 39 39 40 40 41 41 41 40 40 41 40
46 40 49 43 40 51 51 41 42 44 45 42 39 38 38 38 40 42 42 42 42 41 41 40 40 40 40
46 47 36 48 45 45 46 48 45 44 46 40 37 40 46 45 42 39 38 36 35 35 37 37 37 38 37
39 45 49 44 46 46 48 44 41 38 41 50 42 47 44 42 39 36 36 37 38 39 37 35 36 35 36
44 43 44 49 50 46 42 46 46 49 45 50 41 43 42 41 37 36 37 40 39 39 37 37 38 34 35
37 42 44 44 46 47 46 48 46 46 40 44 45 45 45 44 39 36 37 37 38 37 37 36 34 36 37
36 37 41 38 36 38 42 42 42 44 42 40 44 46 45 45 38 27 22 28 29 27 28 29 30 31 35
45 40 35 38 33 32 36 38 40 43 40 37 41 39 30 34 24 31 33 33 31 30 29 29 29 31 35
36 41 41 39 36 33 32 33 39 41 39 35 39 36 28 35 33 37 35 32 30 30 28 30 30 30 32
39 39 40 40 37 34 32 31 31 35 36 30 33 35 38 38 37 36 35 27 20 18 18 20 27 30 30
39 40 39 37 37 36 34 33 34 33 29 28 30 29 29 29 29 33 32 30 14 20 15 18 24 29 31
38 38 38 38 38 35 37 36 36 34 31 30 24 19 15 13 22 30 26 19 20 11 7 10 14 20 25
37 38 38 38 37 36 33 32 32 35 34 30 24 13 9 16 24 25 19 16 12 10 18 19 13 11 18
37 36 36 36 35 35 31 30 33 32 29 27 26 20 16 17 29 22 18 22 22 24 30 33 30 17 12
36 35 35 35 35 34 31 30 33 29 26 22 22 20 23 20 28 22 24 28 32 38 42 45 45 39 34
Wind_Direction
303 307 308 310 306 304 302 298 300 300 296 288 290 290 287 288 283 280 279 277 276 276 274 272 270 268 265
301 307 306 307 305 309 305 295 304 303 299 289 288 288 288 284 282 281 280 277 276 274 271 268 270 269 267
300 301 299 307 308 301 305 307 301 298 295 291 290 287 287 286 284 281 279 277 275 273 271 270 265 266 266
293 302 305 309 305 308 305 304 302 300 298 294 293 290 287 285 284 281 278 273 272 272 271 270 267 265 263
306 299 304 311 308 308 302 302 299 299 297 294 296 294 289 290 287 284 279 276 271 272 270 264 263 260 260
304 309 306 306 305 303 299 299 303 306 300 295 295 291 291 291 290 285 278 274 272 272 272 268 270 260 257
306 303 301 305 306 306 306 304 301 301 301 296 296 291 290 289 287 283 276 275 271 270 267 267 261 260 255
306 304 305 307 306 303 303 304 302 302 300 290 297 291 298 297 295 285 280 276 272 270 265 263 260 256 254
310 306 305 306 306 307 306 307 302 302 317 297 299 298 302 305 306 302 286 281 277 272 268 267 256 253 253
312 315 323 325 316 314 314 303 301 301 318 305 307 310 301 299 301 295 296 294 284 275 267 261 260 252 248
326 327 325 325 329 329 327 321 312 306 323 314 304 300 311 302 304 307 309 306 294 284 268 256 247 242 242
324 320 326 331 334 333 331 329 328 322 325 323 312 298 303 306 301 311 319 316 306 289 278 259 241 238 231
323 328 334 338 339 340 339 340 336 337 337 336 322 314 304 299 301 322 325 327 319 310 285 258 242 228 225
332 339 343 343 343 346 343 345 340 345 354 350 339 318 312 330 329 332 336 324 331 322 288 257 219 211 214
343 344 345 345 346 350 348 348 345 346 349 354 4 348 325 322 341 351 350 14 29 77 89 108 150 191 205
347 347 345 348 345 349 353 354 352 355 351 355 5 22 41 37 25 8 42 50 65 84 86 101 93 118 188
347 347 351 351 350 350 355 358 357 356 0 4 14 20 33 19 33 42 66 69 76 82 84 86 85 84 105